| time (UTC) | temp F | wind direction | speed MPH | gust MPH | rain 1hr in | rain 24hr in | rain mn in | humidity % | barometer mb |
| 20260903143521 | 51 | 332 | 2.0 | 3.0 | 0.00 | 0.28 | 0.00 | 95 | 1006.3 |
| 20260903142517 | 51 | 355 | 2.0 | 3.0 | 0.00 | 0.28 | 0.00 | 95 | 1006.2 |
| 20260903141518 | 51 | 338 | 2.0 | 3.0 | 0.00 | 0.28 | 0.00 | 95 | 1006.0 |
| 20260903140519 | 51 | 315 | 2.0 | 3.0 | 0.00 | 0.28 | 0.00 | 95 | 1005.8 |
| 20260903135518 | 51 | 331 | 3.0 | 4.0 | 0.00 | 0.28 | 0.00 | 95 | 1005.8 |
| 20260903134520 | 51 | 333 | 3.0 | 4.0 | 0.00 | 0.28 | 0.00 | 94 | 1005.7 |
| 20260903133519 | 51 | 338 | 2.0 | 3.0 | 0.00 | 0.28 | 0.00 | 94 | 1005.7 |
| 20260903132541 | 51 | 329 | 2.0 | 3.0 | 0.00 | 0.28 | 0.00 | 94 | 1005.5 |
| 20260903131519 | 51 | 317 | 3.0 | 4.0 | 0.00 | 0.28 | 0.00 | 94 | 1005.4 |
| 20260903130519 | 51 | 325 | 2.0 | 4.0 | 0.00 | 0.28 | 0.00 | 95 | 1005.5 |
| 20260903125516 | 51 | 330 | 2.0 | 4.0 | 0.00 | 0.28 | 0.00 | 95 | 1005.5 |
| 20260903124520 | 52 | 284 | 1.0 | 2.0 | 0.00 | 0.28 | 0.00 | 95 | 1005.4 |
| 20260903123541 | 52 | 329 | 2.0 | 4.0 | 0.00 | 0.28 | 0.00 | 95 | 1005.2 |
| 20260903122522 | 52 | 339 | 3.0 | 3.0 | 0.00 | 0.28 | 0.00 | 94 | 1005.1 |
| 20260903121519 | 52 | 230 | 1.0 | 2.0 | 0.00 | 0.28 | 0.00 | 93 | 1005.0 |
| 20260903120517 | 53 | 345 | 3.0 | 4.0 | 0.00 | 0.28 | 0.00 | 92 | 1004.9 |
| 20260903115518 | 53 | 324 | 1.0 | 2.0 | 0.00 | 0.28 | 0.00 | 92 | 1005.0 |
| 20260903114622 | 53 | 279 | 0.0 | 0.0 | 0.00 | 0.28 | 0.00 | 91 | 1004.9 |
| 20260903113621 | 53 | 357 | 0.0 | 2.0 | 0.00 | 0.28 | 0.00 | 92 | 1004.8 |
| 20260903112517 | 53 | 0.0 | 0.0 | 0.00 | 0.28 | 0.00 | 91 | 1004.6 | |
| 20260903111518 | 54 | 329 | 0.0 | 2.0 | 0.00 | 0.28 | 0.00 | 91 | 1004.7 |
| 20260903110517 | 54 | 349 | 0.0 | 3.0 | 0.00 | 0.28 | 0.00 | 91 | 1004.6 |
| 20260903105519 | 54 | 0.0 | 0.0 | 0.00 | 0.28 | 0.00 | 90 | 1004.7 | |
| 20260903104518 | 54 | 9 | 0.0 | 2.0 | 0.00 | 0.28 | 0.00 | 90 | 1004.6 |
| 20260903103518 | 55 | 0.0 | 0.0 | 0.00 | 0.28 | 0.00 | 89 | 1004.5 | |
| 20260903102520 | 55 | 16 | 0.0 | 3.0 | 0.00 | 0.28 | 0.00 | 86 | 1004.4 |
| 20260903101520 | 55 | 18 | 2.0 | 5.0 | 0.00 | 0.28 | 0.00 | 85 | 1004.2 |
| 20260903100539 | 55 | 19 | 2.0 | 5.0 | 0.00 | 0.28 | 0.00 | 85 | 1004.1 |
| 20260903095519 | 55 | 18 | 2.0 | 6.0 | 0.00 | 0.28 | 0.00 | 85 | 1004.2 |
| 20260903094519 | 55 | 345 | 0.0 | 2.0 | 0.00 | 0.28 | 0.00 | 87 | 1004.2 |
| 20260903093519 | 55 | 0.0 | 0.0 | 0.00 | 0.28 | 0.00 | 89 | 1004.2 | |
| 20260903092519 | 55 | 0.0 | 0.0 | 0.00 | 0.28 | 0.00 | 88 | 1004.0 | |
| 20260903091520 | 55 | 306 | 0.0 | 3.0 | 0.00 | 0.28 | 0.00 | 87 | 1003.9 |
| 20260903090517 | 55 | 338 | 0.0 | 3.0 | 0.00 | 0.28 | 0.00 | 87 | 1003.9 |
| 20260903085540 | 55 | 348 | 1.0 | 3.0 | 0.00 | 0.28 | 0.00 | 88 | 1003.8 |
| 20260903084520 | 56 | 324 | 0.0 | 3.0 | 0.00 | 0.28 | 0.00 | 88 | 1003.8 |
| 20260903083520 | 56 | 343 | 1.0 | 4.0 | 0.00 | 0.28 | 0.00 | 88 | 1003.8 |
| 20260903082517 | 56 | 324 | 2.0 | 4.0 | 0.00 | 0.28 | 0.00 | 88 | 1003.7 |
| 20260903081518 | 56 | 339 | 1.0 | 3.0 | 0.00 | 0.28 | 0.00 | 89 | 1003.6 |
| 20260903080519 | 56 | 311 | 1.0 | 3.0 | 0.00 | 0.28 | 0.00 | 88 | 1003.6 |
| 20260903075538 | 56 | 328 | 1.0 | 4.0 | 0.00 | 0.28 | 0.00 | 87 | 1003.4 |
| 20260903074520 | 57 | 331 | 1.0 | 3.0 | 0.00 | 0.28 | 0.00 | 86 | 1003.2 |
| 20260903073518 | 57 | 330 | 0.0 | 2.0 | 0.00 | 0.28 | 0.00 | 84 | 1003.1 |
| 20260903072518 | 57 | 351 | 2.0 | 4.0 | 0.00 | 0.28 | 0.00 | 82 | 1002.9 |
| 20260903071520 | 57 | 345 | 2.0 | 6.0 | 0.00 | 0.28 | 0.00 | 84 | 1002.7 |
| 20260903070519 | 57 | 331 | 1.0 | 3.0 | 0.00 | 0.28 | 0.00 | 86 | 1002.6 |
| 20260903065519 | 57 | 334 | 0.0 | 2.0 | 0.00 | 0.28 | 0.28 | 88 | 1002.6 |
| 20260903064519 | 57 | 343 | 0.0 | 2.0 | 0.00 | 0.28 | 0.28 | 86 | 1002.7 |
| 20260903063540 | 57 | 348 | 1.0 | 4.0 | 0.00 | 0.28 | 0.28 | 87 | 1002.6 |
| 20260903062521 | 57 | 346 | 3.0 | 4.0 | 0.00 | 0.28 | 0.28 | 89 | 1003.1 |
| 20260903061517 | 57 | 321 | 2.0 | 3.0 | 0.00 | 0.28 | 0.28 | 88 | 1003.1 |
| 20260903060517 | 58 | 347 | 2.0 | 3.0 | 0.00 | 0.28 | 0.28 | 89 | 1002.8 |
| 20260903055520 | 58 | 327 | 2.0 | 4.0 | 0.00 | 0.28 | 0.28 | 88 | 1002.8 |
| 20260903054541 | 59 | 348 | 2.0 | 4.0 | 0.00 | 0.28 | 0.28 | 88 | 1002.7 |
| 20260903053518 | 59 | 321 | 1.0 | 2.0 | 0.00 | 0.28 | 0.28 | 87 | 1002.6 |
| 20260903052518 | 59 | 4 | 3.0 | 4.0 | 0.00 | 0.28 | 0.28 | 87 | 1002.6 |
| 20260903051518 | 59 | 341 | 2.0 | 3.0 | 0.00 | 0.28 | 0.28 | 88 | 1002.6 |
| 20260903050518 | 58 | 356 | 1.0 | 3.0 | 0.00 | 0.28 | 0.28 | 85 | 1002.5 |
| 20260903045520 | 58 | 342 | 3.0 | 6.0 | 0.00 | 0.28 | 0.28 | 88 | 1002.5 |
| 20260903044600 | 59 | 5 | 3.0 | 8.0 | 0.00 | 0.28 | 0.28 | 87 | 1002.1 |
| 20260903043519 | 59 | 36 | 3.0 | 7.0 | 0.00 | 0.28 | 0.28 | 87 | 1001.9 |
| 20260903042518 | 59 | 23 | 2.0 | 5.0 | 0.00 | 0.28 | 0.28 | 88 | 1001.8 |
| 20260903041518 | 60 | 38 | 3.0 | 6.0 | 0.00 | 0.28 | 0.28 | 88 | 1001.6 |
| 20260903040519 | 60 | 35 | 2.0 | 5.0 | 0.00 | 0.28 | 0.28 | 87 | 1001.5 |
| 20260903035519 | 60 | 55 | 1.0 | 4.0 | 0.00 | 0.28 | 0.28 | 85 | 1001.4 |
| 20260903034519 | 60 | 43 | 1.0 | 4.0 | 0.00 | 0.28 | 0.28 | 87 | 1001.3 |
| 20260903033519 | 59 | 16 | 0.0 | 2.0 | 0.00 | 0.28 | 0.28 | 90 | 1001.1 |
| 20260903032521 | 59 | 0.0 | 0.0 | 0.00 | 0.28 | 0.28 | 90 | 1001.0 | |
| 20260903031517 | 59 | 0.0 | 0.0 | 0.00 | 0.28 | 0.28 | 91 | 1001.0 | |
| 20260903030517 | 60 | 68 | 0.0 | 2.0 | 0.00 | 0.28 | 0.28 | 90 | 1000.8 |
| 20260903025520 | 61 | 148 | 0.0 | 3.0 | 0.00 | 0.28 | 0.28 | 88 | 1000.7 |
| 20260903024520 | 61 | 69 | 1.0 | 5.0 | 0.00 | 0.28 | 0.28 | 85 | 1000.6 |
| 20260903023538 | 61 | 40 | 1.0 | 3.0 | 0.00 | 0.28 | 0.28 | 86 | 1000.7 |
| 20260903022517 | 62 | 43 | 1.0 | 6.0 | 0.00 | 0.28 | 0.28 | 84 | 1000.7 |
| 20260903021540 | 62 | 13 | 1.0 | 5.0 | 0.00 | 0.28 | 0.28 | 84 | 1000.7 |
| 20260903020538 | 62 | 50 | 1.0 | 4.0 | 0.00 | 0.28 | 0.28 | 84 | 1000.6 |
| 20260903015518 | 62 | 37 | 3.0 | 7.0 | 0.06 | 0.28 | 0.28 | 84 | 1000.4 |
| 20260903014520 | 63 | 21 | 2.0 | 5.0 | 0.12 | 0.28 | 0.28 | 82 | 1000.5 |
| 20260903013519 | 63 | 13 | 1.0 | 4.0 | 0.12 | 0.28 | 0.28 | 81 | 1000.4 |
| 20260903012519 | 63 | 22 | 1.0 | 4.0 | 0.12 | 0.28 | 0.28 | 84 | 1000.4 |
| 20260903011519 | 62 | 23 | 1.0 | 3.0 | 0.13 | 0.28 | 0.28 | 83 | 1000.3 |
| 20260903010517 | 62 | 71 | 3.0 | 5.0 | 0.28 | 0.28 | 0.28 | 83 | 1000.4 |
| 20260903005520 | 63 | 96 | 3.0 | 5.0 | 0.21 | 0.21 | 0.21 | 88 | 1000.7 |
| 20260903004519 | 67 | 134 | 1.0 | 3.0 | 0.15 | 0.15 | 0.15 | 80 | 1000.3 |
| 20260903003519 | 65 | 348 | 1.0 | 3.0 | 0.15 | 0.15 | 0.15 | 82 | 1000.2 |
| 20260903002520 | 66 | 152 | 1.0 | 3.0 | 0.15 | 0.15 | 0.15 | 83 | 1000.2 |
| 20260903001517 | 69 | 120 | 2.0 | 6.0 | 0.15 | 0.15 | 0.15 | 72 | 1000.2 |
| 20260903000517 | 69 | 132 | 1.0 | 4.0 | 0.00 | 0.00 | 0.00 | 61 | 1000.1 |
| 20260902235522 | 71 | 105 | 2.0 | 7.0 | 0.00 | 0.00 | 0.00 | 61 | 999.9 |
| 20260902234518 | 73 | 107 | 3.0 | 7.0 | 0.00 | 0.00 | 0.00 | 56 | 999.8 |
| 20260902233519 | 75 | 95 | 3.0 | 8.0 | 0.00 | 0.00 | 0.00 | 52 | 999.7 |
| 20260902232538 | 73 | 132 | 1.0 | 4.0 | 0.00 | 0.00 | 0.00 | 52 | 999.8 |
| 20260902231518 | 73 | 115 | 1.0 | 4.0 | 0.00 | 0.00 | 0.00 | 53 | 999.9 |
| 20260902230518 | 72 | 68 | 3.0 | 7.0 | 0.00 | 0.00 | 0.00 | 53 | 999.8 |
| 20260902225518 | 72 | 85 | 3.0 | 5.0 | 0.00 | 0.00 | 0.00 | 53 | 1000.0 |
| 20260902224539 | 73 | 80 | 2.0 | 6.0 | 0.00 | 0.00 | 0.00 | 51 | 1000.1 |
| 20260902223519 | 74 | 61 | 3.0 | 6.0 | 0.00 | 0.00 | 0.00 | 50 | 1000.1 |
| 20260902222541 | 73 | 339 | 1.0 | 3.0 | 0.00 | 0.00 | 0.00 | 50 | 1000.2 |
| 20260902221520 | 72 | 90 | 1.0 | 6.0 | 0.00 | 0.00 | 0.00 | 51 | 1000.3 |
| 20260902220517 | 70 | 92 | 3.0 | 5.0 | 0.00 | 0.00 | 0.00 | 53 | 1000.5 |
| 20260902215520 | 70 | 118 | 1.0 | 4.0 | 0.00 | 0.00 | 0.00 | 55 | 1000.5 |
| 20260902214520 | 70 | 137 | 2.0 | 6.0 | 0.00 | 0.00 | 0.00 | 55 | 1000.6 |
| 20260902213517 | 71 | 134 | 1.0 | 3.0 | 0.00 | 0.00 | 0.00 | 56 | 1000.6 |
| 20260902212517 | 72 | 109 | 1.0 | 4.0 | 0.00 | 0.00 | 0.00 | 51 | 1000.7 |
| 20260902211519 | 73 | 182 | 2.0 | 4.0 | 0.00 | 0.00 | 0.00 | 52 | 1000.7 |
| 20260902210517 | 74 | 115 | 1.0 | 4.0 | 0.00 | 0.00 | 0.00 | 51 | 1000.7 |
| 20260902205518 | 73 | 135 | 2.0 | 5.0 | 0.00 | 0.00 | 0.00 | 52 | 1000.8 |
| 20260902204518 | 72 | 180 | 1.0 | 3.0 | 0.00 | 0.00 | 0.00 | 54 | 1000.8 |
| 20260902203518 | 71 | 183 | 1.0 | 4.0 | 0.00 | 0.00 | 0.00 | 54 | 1001.0 |
| 20260902202539 | 70 | 94 | 2.0 | 6.0 | 0.00 | 0.00 | 0.00 | 57 | 1001.1 |
| 20260902201518 | 70 | 124 | 2.0 | 6.0 | 0.00 | 0.00 | 0.00 | 58 | 1001.1 |
| 20260902200540 | 69 | 80 | 3.0 | 6.0 | 0.00 | 0.00 | 0.00 | 57 | 1001.2 |
| 20260902195518 | 69 | 132 | 2.0 | 7.0 | 0.00 | 0.00 | 0.00 | 59 | 1001.3 |
| 20260902194539 | 68 | 70 | 2.0 | 6.0 | 0.00 | 0.00 | 0.00 | 57 | 1001.5 |
| 20260902193521 | 68 | 244 | 1.0 | 4.0 | 0.00 | 0.00 | 0.00 | 58 | 1001.6 |
| 20260902192519 | 67 | 60 | 2.0 | 5.0 | 0.00 | 0.00 | 0.00 | 62 | 1001.7 |
| 20260902191538 | 67 | 38 | 3.0 | 7.0 | 0.00 | 0.00 | 0.00 | 62 | 1001.9 |
| 20260902190519 | 67 | 109 | 1.0 | 3.0 | 0.00 | 0.00 | 0.00 | 63 | 1001.9 |
| 20260902185520 | 67 | 41 | 2.0 | 5.0 | 0.00 | 0.00 | 0.00 | 60 | 1001.9 |
| 20260902184520 | 67 | 70 | 1.0 | 4.0 | 0.00 | 0.00 | 0.00 | 61 | 1001.9 |
| 20260902183517 | 66 | 211 | 0.0 | 2.0 | 0.00 | 0.00 | 0.00 | 64 | 1002.2 |
| 20260902182519 | 65 | 220 | 0.0 | 2.0 | 0.00 | 0.00 | 0.00 | 70 | 1002.3 |
| 20260902181519 | 64 | 18 | 0.0 | 3.0 | 0.00 | 0.00 | 0.00 | 69 | 1002.4 |
| 20260902180521 | 64 | 243 | 1.0 | 4.0 | 0.00 | 0.00 | 0.00 | 67 | 1002.4 |
| 20260902175539 | 64 | 262 | 1.0 | 3.0 | 0.00 | 0.00 | 0.00 | 71 | 1002.6 |
| 20260902174538 | 63 | 24 | 0.0 | 3.0 | 0.00 | 0.00 | 0.00 | 71 | 1002.7 |
| 20260902173520 | 63 | 48 | 1.0 | 4.0 | 0.00 | 0.00 | 0.00 | 71 | 1002.7 |
| 20260902172518 | 62 | 46 | 1.0 | 3.0 | 0.00 | 0.00 | 0.00 | 75 | 1002.8 |
| 20260902171558 | 62 | 188 | 0.0 | 1.0 | 0.00 | 0.00 | 0.00 | 76 | 1002.8 |
| 20260902170539 | 62 | 53 | 3.0 | 4.0 | 0.00 | 0.00 | 0.00 | 74 | 1002.8 |
| 20260902165519 | 61 | 57 | 3.0 | 4.0 | 0.00 | 0.00 | 0.00 | 77 | 1002.8 |
| 20260902164519 | 60 | 49 | 2.0 | 4.0 | 0.00 | 0.00 | 0.00 | 78 | 1002.8 |
| 20260902163519 | 60 | 64 | 2.0 | 3.0 | 0.00 | 0.00 | 0.00 | 78 | 1002.8 |
| 20260902162540 | 59 | 41 | 2.0 | 3.0 | 0.00 | 0.00 | 0.00 | 79 | 1002.9 |
| 20260902161519 | 58 | 30 | 4.0 | 6.0 | 0.00 | 0.00 | 0.00 | 81 | 1002.9 |
| 20260902160519 | 58 | 21 | 4.0 | 7.0 | 0.00 | 0.00 | 0.00 | 83 | 1002.9 |
| 20260902155520 | 57 | 17 | 3.0 | 5.0 | 0.00 | 0.00 | 0.00 | 83 | 1002.9 |
| 20260902154522 | 56 | 19 | 4.0 | 6.0 | 0.00 | 0.00 | 0.00 | 85 | 1002.9 |
| 20260902153520 | 56 | 27 | 4.0 | 5.0 | 0.00 | 0.00 | 0.00 | 86 | 1002.9 |
| 20260902152520 | 55 | 29 | 4.0 | 6.0 | 0.00 | 0.00 | 0.00 | 88 | 1002.9 |
| 20260902151540 | 54 | 28 | 4.0 | 6.0 | 0.00 | 0.00 | 0.00 | 90 | 1002.9 |
| 20260902150520 | 54 | 25 | 4.0 | 7.0 | 0.00 | 0.00 | 0.00 | 91 | 1002.9 |
| 20260902145541 | 53 | 28 | 4.0 | 7.0 | 0.00 | 0.00 | 0.00 | 92 | 1002.8 |
| 20260902144521 | 53 | 31 | 4.0 | 6.0 | 0.00 | 0.00 | 0.00 | 92 | 1002.9 |